[[{"header":{"parameterUnit":"m.s-1","parameterCategory":1,"la1":30.2991,"la2":30.254,"lo1":-89.0895,"lo2":-89.0444,"dy":0.0017,"dx":0.0017,"nx":28,"ny":28,"refTime":"2024-08-12T03:00:00:Z","depth":0,"parameterNumber":2,"parameterNumberName":"U-component_of_WINDS"},"data":[0,0,0,0,0,0,0,0,0,0,0,0,0,0,0,0,0,0,0,0,0,0,0,0,0,0,0,0,0,0,0,0,0,0,0,0,0,0,0,0,0,0,0,0,0,0,0,0,0,0,0,0,0,0,0,0,0,0,3.597,3.5971,0,3.5989,3.5989,3.5989,3.585,3.5846,3.5842,3.5838,3.5865,3.5869,3.5874,0,0,0,0,0,0,0,0,0,0,0,0,0,3.5821,3.5825,3.597,3.5971,3.5971,3.5989,3.5989,3.5989,3.585,3.5845,3.5841,3.5836,3.5864,3.5869,3.5874,0,0,0,0,0,0,0,0,0,0,0,0,0,3.5868,3.5826,3.597,3.5903,3.5898,3.5988,3.5989,3.5989,3.5851,3.5845,3.5839,3.5834,3.5862,3.5868,3.5875,3.6033,0,0,3.5895,3.5898,0,0,0,0,0,0,0,0,3.5865,3.5873,3.5913,3.5908,3.5902,3.591,3.5946,3.6004,3.5853,3.5869,3.5838,3.5831,3.5886,3.589,3.5906,3.6034,3.6036,3.5895,3.5899,3.5902,3.5904,0,0,0,0,0,0,0,3.5862,3.5872,3.5978,3.5914,3.5907,3.5874,3.5875,3.5956,3.5911,3.5867,3.5857,3.5861,3.5881,3.59,3.5906,3.6036,3.5895,3.5901,3.5905,3.5908,3.6292,3.6298,0,0,0,0,0,0,3.5867,3.587,3.5977,3.5978,3.5868,3.5882,3.5882,3.5914,3.5909,3.5903,3.5866,3.5854,3.5892,3.5899,3.5906,3.6089,3.5902,3.5908,3.5912,3.6286,3.6294,3.63,0,0,0,0,0,0,3.5864,3.5878,3.5976,3.5921,3.5931,3.5891,3.5928,3.5917,3.5936,3.5908,3.59,3.5893,3.5888,3.5897,3.6001,3.6089,3.5911,3.5917,3.6279,3.6288,3.6297,3.6459,0,0,0,0,0,0,3.5861,3.5878,3.5936,3.5924,3.5935,3.607,3.5933,3.5922,3.5947,3.5932,3.5931,3.5926,3.5884,3.5992,3.6008,3.6094,3.5922,3.6271,3.6283,3.6294,3.6445,3.6473,3.6496,0,0,0,0,0,3.5856,3.5984,3.594,3.5954,3.6007,3.6075,3.6082,3.6029,3.5954,3.6014,3.5995,3.5926,3.6077,3.6004,3.6021,3.6111,3.6265,3.6279,3.6293,3.6434,3.6467,3.6495,0,0,0,0,0,0,3.6012,3.5981,3.5932,3.6059,3.607,3.6052,3.6125,3.6066,3.61,3.6085,3.602,3.6021,3.6136,3.6134,3.6054,3.6262,3.6158,3.6176,3.626,3.6291,3.6315,3.6314,3.5928,0,0,0,0,0,3.606,3.6116,3.6087,3.6202,3.621,3.6167,3.6195,3.6152,3.6162,3.6167,3.6156,3.6171,3.6221,3.6256,3.6301,3.6444,3.6442,3.6514,3.6539,3.656,3.6576,3.665,3.6682,3.6347,3.6347,3.6346,0,0,3.6162,3.6152,3.6192,3.6233,3.6236,3.6297,3.6172,3.6242,3.6287,3.6179,3.6275,3.6268,3.628,3.6404,3.6458,3.6405,3.6668,3.6578,3.6595,3.66,3.6668,3.67,3.6728,3.6356,3.6355,3.6353,0,0,3.6378,3.6377,3.6471,3.6476,3.6482,3.6452,3.6475,3.6464,3.6454,3.6549,3.6468,3.6521,3.661,3.6621,3.6638,3.6856,3.6793,3.6872,3.7004,3.7077,3.7103,3.7126,3.7203,3.7231,3.6889,3.6889,3.689,0,3.6505,3.6591,3.6528,3.6602,3.6622,3.6523,3.6619,3.6628,3.665,3.6667,3.6606,3.6713,3.6714,3.6838,3.6891,3.6909,3.6933,3.6872,3.7104,3.7126,3.7147,3.7219,3.7249,3.6899,3.6898,3.6897,3.6896,0,3.6746,3.6807,3.6883,3.6902,3.6931,3.7016,3.6966,3.7004,3.6958,3.6935,3.7033,3.703,3.7071,3.7098,3.7056,3.7216,3.7183,3.7115,3.7008,3.719,3.7256,3.7284,3.6912,3.6909,3.6906,3.6904,0,0,3.7063,3.7043,3.7072,3.7078,3.7076,3.7123,3.7203,3.724,3.7273,3.7291,3.7357,3.7432,3.7368,3.7388,3.7346,3.741,3.7581,3.7333,3.7333,3.7379,3.7756,3.7807,3.784,3.7539,3.7544,3.7548,3.7754,0,3.7273,3.7406,3.735,3.749,3.7544,3.745,3.752,3.7527,3.7507,3.7552,3.7531,3.7585,3.7496,3.7507,3.7566,3.7548,3.7656,3.7532,3.7601,3.7604,3.76,3.7875,3.793,3.8125,3.778,3.7785,3.7788,0,3.7536,3.756,3.7704,3.7689,3.771,3.7774,3.7802,3.7846,3.7852,3.7833,3.7854,3.7797,3.7875,3.7769,3.7877,3.7794,3.7819,3.7814,3.782,3.7825,3.7707,3.7887,3.8186,3.8215,3.7829,3.7825,3.7822,0,3.7751,3.7821,3.7914,3.7923,3.7909,3.7955,3.7952,3.7952,3.7977,3.8003,3.8018,3.8054,3.8074,3.8104,3.8059,3.7986,3.8173,3.8063,3.816,3.8161,3.8204,3.8202,3.8511,3.8221,3.8221,3.822,3.822,0,3.7991,3.8083,3.801,3.8069,3.8168,3.8103,3.8205,3.8191,3.8191,3.8246,3.8168,3.8221,3.8158,3.8206,3.8172,3.8265,3.8276,3.8263,3.8253,3.827,3.8272,3.8285,3.8271,3.8228,3.8226,3.8225,3.8223,0,3.8249,3.8204,3.83,3.8277,3.8273,3.8348,3.8329,3.8382,3.8355,3.8426,3.8439,3.8398,3.845,3.8407,3.8459,3.8435,3.856,3.8531,3.8557,3.8549,3.8647,3.8638,3.8976,3.9017,3.8701,3.8705,3.8707,0,3.8405,3.8473,3.8455,3.8485,3.8485,3.8534,3.8558,3.8497,3.8525,3.8535,3.8588,3.8632,3.8665,3.8753,3.8729,3.8768,3.8739,3.8854,3.8744,3.8759,3.8739,3.8736,3.8742,3.8877,3.8881,3.8884,3.8886,0,3.8687,3.866,3.8696,3.8724,3.8754,3.8774,3.8788,3.8817,3.8754,3.8791,3.8841,3.8866,3.8916,3.8961,3.8991,3.899,3.8929,3.892,3.8945,3.8963,3.8975,3.8969,3.8617,3.8913,3.8911,3.8909,3.8907,3.8906,3.8897,3.8952,3.8947,3.899,3.8993,3.9007,3.9055,3.9033,3.9072,3.9106,3.9068,3.913,3.9132,3.9166,3.9171,3.9219,3.9172,3.9207,3.9216,3.9226,3.9239,3.8967,3.9225,3.9224,3.9223,3.9223,3.9222,0,3.9174,3.9165,3.9204,3.9224,3.9258,3.9193,3.9205,3.9238,3.9291,3.9297,3.9329,3.9387,3.9429,3.9408,3.9445,3.9488,3.946,3.95,3.9496,3.9496,3.9281,3.9255,3.9521,3.9521,3.9521,3.9521,3.9521,3.9521,3.9321,3.9409,3.9382,3.9471,3.9462,3.9519,3.9531,3.9544,3.9548,3.9614,3.9648,3.9632,3.9628,3.9663,3.97,3.9692,3.971,3.976,3.9743,3.9541,3.9512,3.9484,3.946,3.9764,3.9764,3.9954,3.9956,3.9957]},{"header":{"parameterUnit":"m.s-1","parameterCategory":1,"la1":30.2991,"la2":30.254,"lo1":-89.0895,"lo2":-89.0444,"dy":0.0017,"dx":0.0017,"nx":28,"ny":28,"refTime":"2024-08-12T03:00:00:Z","depth":0,"parameterNumber":3,"parameterNumberName":"V-component_of_WINDS"},"data":[0,0,0,0,0,0,0,0,0,0,0,0,0,0,0,0,0,0,0,0,0,0,0,0,0,0,0,0,0,0,0,0,0,0,0,0,0,0,0,0,0,0,0,0,0,0,0,0,0,0,0,0,0,0,0,0,0,0,3.2169,3.217,0,3.2286,3.2287,3.2289,3.2293,3.2292,3.2291,3.2289,3.2403,3.2407,3.2411,0,0,0,0,0,0,0,0,0,0,0,0,0,3.1944,3.1948,3.2169,3.217,3.2172,3.2286,3.2287,3.2289,3.2294,3.2292,3.229,3.2289,3.2402,3.2407,3.2412,0,0,0,0,0,0,0,0,0,0,0,0,0,3.205,3.195,3.2169,3.2188,3.2191,3.2286,3.2288,3.2289,3.2294,3.2292,3.229,3.2288,3.24,3.2406,3.2412,3.2494,0,0,3.2432,3.2435,0,0,0,0,0,0,0,0,3.2044,3.2058,3.2184,3.2187,3.219,3.2273,3.225,3.2358,3.2295,3.2255,3.2289,3.2287,3.2361,3.2371,3.2397,3.2499,3.2504,3.2433,3.2437,3.2439,3.2441,0,0,0,0,0,0,0,3.2036,3.2053,3.2215,3.2185,3.219,3.2189,3.2202,3.227,3.2318,3.2258,3.2259,3.2273,3.2362,3.2391,3.2399,3.2505,3.2433,3.2438,3.2442,3.2445,3.268,3.2683,0,0,0,0,0,0,3.2026,3.2047,3.2211,3.2219,3.2111,3.2195,3.2209,3.2249,3.2317,3.2326,3.2274,3.2273,3.2381,3.2392,3.2403,3.2503,3.2439,3.2445,3.2449,3.2678,3.2681,3.2683,0,0,0,0,0,0,3.2021,3.2041,3.2207,3.2133,3.2154,3.2201,3.2245,3.2252,3.228,3.233,3.2337,3.2295,3.2379,3.2394,3.2472,3.2507,3.2448,3.2454,3.2675,3.2679,3.2682,3.2703,0,0,0,0,0,0,3.2015,3.2039,3.2071,3.2134,3.2158,3.2274,3.2248,3.2256,3.2292,3.2291,3.2351,3.2359,3.2379,3.2462,3.2478,3.2515,3.2459,3.2672,3.2677,3.2681,3.2699,3.2707,3.2713,0,0,0,0,0,3.2007,3.2071,3.2073,3.2093,3.22,3.2276,3.229,3.2314,3.2295,3.2327,3.2359,3.2357,3.2501,3.247,3.2488,3.2527,3.267,3.2676,3.2681,3.2696,3.2705,3.2713,0,0,0,0,0,0,3.2008,3.2079,3.2082,3.2169,3.2217,3.2277,3.2318,3.2323,3.2375,3.2371,3.2397,3.241,3.2487,3.2515,3.2479,3.261,3.2583,3.2592,3.2589,3.2598,3.2605,3.2595,3.2465,0,0,0,0,0,3.2019,3.2078,3.2136,3.2206,3.2231,3.2271,3.2305,3.2319,3.2369,3.2389,3.2426,3.2473,3.2529,3.2565,3.2619,3.2704,3.2717,3.274,3.2747,3.2752,3.2759,3.2806,3.2817,3.2701,3.2701,3.2701,0,0,3.2041,3.2087,3.2122,3.2208,3.2247,3.2305,3.2287,3.2349,3.2392,3.2397,3.2473,3.2503,3.2557,3.2638,3.2676,3.2664,3.2795,3.2759,3.2763,3.2767,3.2813,3.2824,3.2834,3.2705,3.2704,3.2704,0,0,3.2111,3.2152,3.2216,3.2256,3.2317,3.2343,3.2359,3.2419,3.244,3.2517,3.2522,3.2573,3.2669,3.2707,3.2739,3.2827,3.2826,3.2843,3.2879,3.2925,3.2934,3.2942,3.2972,3.2983,3.2851,3.2851,3.2851,0,3.213,3.222,3.2248,3.2311,3.2348,3.2359,3.2423,3.246,3.2533,3.2558,3.2544,3.2666,3.2703,3.2794,3.2816,3.2841,3.2859,3.2836,3.2931,3.2939,3.2947,3.2976,3.2988,3.2852,3.2852,3.2852,3.2852,0,3.224,3.2303,3.2347,3.2421,3.2463,3.2526,3.2562,3.2602,3.2613,3.2641,3.2719,3.2765,3.2828,3.2851,3.2862,3.2944,3.2935,3.2926,3.2899,3.2959,3.2987,3.2999,3.2855,3.2854,3.2854,3.2853,0,0,3.2312,3.2403,3.2418,3.2453,3.2521,3.2569,3.2633,3.2698,3.2731,3.2782,3.2835,3.2917,3.291,3.2946,3.2962,3.3002,3.3068,3.2988,3.2989,3.3,3.316,3.3166,3.3179,3.3069,3.3071,3.3073,3.3156,0,3.2389,3.2504,3.2532,3.263,3.2688,3.27,3.2755,3.2802,3.283,3.2882,3.2912,3.297,3.2956,3.2978,3.3019,3.3051,3.31,3.3046,3.3117,3.3119,3.3102,3.3193,3.3199,3.3275,3.3167,3.3169,3.317,0,3.2493,3.255,3.2654,3.2717,3.2742,3.2791,3.2854,3.2904,3.2958,3.2975,3.3017,3.3029,3.3095,3.3066,3.3156,3.3119,3.315,3.317,3.3174,3.318,3.3147,3.3201,3.33,3.3311,3.3188,3.3186,3.3185,0,3.2534,3.2636,3.2712,3.2741,3.2816,3.2851,3.2883,3.2935,3.2973,3.3027,3.3052,3.3112,3.3144,3.319,3.3217,3.3195,3.3305,3.3279,3.332,3.3319,3.3341,3.3339,3.3445,3.3363,3.3363,3.3363,3.3362,0,3.2616,3.2679,3.2732,3.2778,3.285,3.2881,3.295,3.2982,3.3029,3.3081,3.3095,3.3142,3.3177,3.3229,3.3251,3.3322,3.3336,3.3351,3.3356,3.3349,3.3347,3.3368,3.3363,3.3366,3.3365,3.3364,3.3364,0,3.2672,3.271,3.2794,3.286,3.2878,3.2927,3.2982,3.3027,3.3057,3.3122,3.314,3.3185,3.3248,3.3281,3.3358,3.3373,3.3452,3.3454,3.3435,3.3436,3.3475,3.3471,3.3597,3.3615,3.3522,3.3523,3.3524,0,3.2721,3.277,3.2842,3.288,3.2914,3.2973,3.3013,3.3045,3.3086,3.3152,3.3189,3.3253,3.3306,3.3406,3.3444,3.3504,3.3507,3.3548,3.3516,3.3508,3.3506,3.3503,3.3507,3.3552,3.3553,3.3554,3.3554,0,3.2803,3.2821,3.2878,3.2944,3.2991,3.3043,3.3095,3.3124,3.3165,3.3209,3.3276,3.3317,3.3398,3.3461,3.3524,3.3556,3.3561,3.3565,3.3577,3.357,3.3556,3.3563,3.3449,3.3561,3.356,3.356,3.3559,3.3559,3.2857,3.2902,3.296,3.3024,3.3067,3.3116,3.3162,3.3199,3.3255,3.3325,3.3341,3.341,3.3464,3.355,3.3583,3.3637,3.3628,3.3646,3.3651,3.3654,3.3656,3.3549,3.3649,3.3648,3.3648,3.3648,3.3648,0,3.2939,3.2978,3.3037,3.311,3.3161,3.3166,3.3223,3.3264,3.3326,3.3377,3.343,3.3506,3.3568,3.3613,3.3676,3.371,3.3715,3.3725,3.3722,3.3729,3.366,3.3643,3.3721,3.3721,3.3721,3.3721,3.3721,3.3721,3.2988,3.3064,3.3089,3.3187,3.3225,3.3295,3.3328,3.3372,3.3413,3.3498,3.3551,3.3581,3.3629,3.3696,3.3753,3.3764,3.3786,3.3797,3.3808,3.3742,3.3734,3.3727,3.3711,3.3802,3.3802,3.3873,3.3873,3.3874]}]]